Home   Weather   Syracuse   Past weeks

Flag for USA Past Weather in Syracuse, New York, USA — Yesterday and Last 2 Weeks

Now
59 °F

Passing clouds.


Feels Like: 59 °F
Forecast: 50 / 76 °F
Wind: No wind

Location: Syracuse Hancock International Airport

Current Time: May 27, 2017 at 10:49:58 pm

Latest Report: May 27, 2017 at 9:54 pm


Visibility: 10 mi

Pressure: 29.91 "Hg

Humidity: 90%

Dew Point: 56 °F

Location of SyracuseLocation

Past Weather in Syracuse — Graph

°F

Syracuse Temperature Yesterday

Maximum temperature yesterday: 60 °F (at 12:54 pm)
Minimum temperature yesterday: 53 °F (at 5:54 am)
Average temperature yesterday: 56 °F

High & Low Weather Summary for the Past Weeks

 TemperatureHumidityPressure
High87 °F (May 17, 2:54 pm)100% (May 13, 4:54 am)30.31 "Hg (May 13, 4:54 am)
Low41 °F (May 14, 5:38 am)30% (May 20, 4:54 pm)29.51 "Hg (May 25, 5:54 pm)
Average59 °F75%29.86 "Hg
* Reported May 12 8:54 pm — May 27 8:54 pm, Syracuse. Weather by CustomWeather, © 2017

Note: Actual official high and low records may vary slightly from our data, if they occured in-between our weather recording intervals... More about our weather records

Advertising

Syracuse Weather History for the Previous 24 Hours

Scroll right to see more
 ConditionsComfort  
Time TempWeatherWind HumidityBarometerVisibility
8:54 pm
Sat, May 27
62 °FPartly cloudy.6 mph78%29.91 "Hg10 mi
7:54 pm63 °FMore clouds than sun.6 mph75%29.89 "Hg10 mi
6:54 pm63 °FPartly sunny.7 mph75%29.88 "Hg10 mi
5:54 pm64 °FLight rain. Partly sunny.6 mph78%29.87 "Hg10 mi
4:54 pm64 °FLight rain. Partly sunny.6 mph81%29.87 "Hg10 mi
3:54 pm64 °FLight rain. Broken clouds.6 mph81%29.86 "Hg10 mi
2:54 pm64 °FPartly sunny.8 mph78%29.88 "Hg10 mi
2:01 pm66 °FBroken clouds.6 mph75%29.89 "Hg10 mi
12:54 pm63 °FPartly sunny.3 mph84%29.88 "Hg10 mi
12:07 pm61 °FPartly sunny.3 mph87%29.91 "Hg10 mi
11:01 am58 °FLight rain. Low clouds.3 mph93%29.90 "Hg10 mi
10:01 am58 °FLight rain. Fog.No wind97%29.90 "Hg4 mi
9:34 am57 °FDrizzle. Fog.No wind100%29.90 "Hg2 mi
8:54 am57 °FDrizzle. Fog.No wind96%29.88 "Hg2 mi
8:15 am56 °FDrizzle. Fog.No wind100%29.89 "Hg2 mi
7:58 am56 °FDrizzle. Fog.No wind100%29.89 "Hg2 mi
7:33 am56 °FDrizzle. Fog.No wind100%29.89 "Hg3 mi
6:54 am55 °FDrizzle. Fog.3 mph100%29.88 "Hg4 mi
5:54 am56 °FDrizzle. Fog.No wind100%29.85 "Hg5 mi
5:34 am55 °FLight rain. Fog.3 mph100%29.87 "Hg4 mi
4:54 am56 °FLight rain. Low clouds.5 mph100%29.85 "Hg10 mi
3:54 am56 °FDrizzle. Fog.5 mph100%29.85 "Hg6 mi
2:54 am56 °FDrizzle. Fog.3 mph100%29.84 "Hg3 mi
2:20 am55 °FLight rain. Fog.6 mph100%29.84 "Hg5 mi
1:54 am55 °FLight rain. Fog.6 mph100%29.83 "Hg4 mi
1:26 am56 °FLight rain. Fog.5 mph100%29.85 "Hg2 mi
12:54 am56 °FLight rain. Fog.3 mph100%29.84 "Hg4 mi
12:30 am56 °FLight rain. Fog.3 mph100%29.85 "Hg2 mi
11:58 pm
Fri, May 26
56 °FDrizzle. Fog.3 mph100%29.85 "Hg5 mi
11:27 pm56 °FDrizzle. Mostly cloudy.5 mph100%29.85 "Hg10 mi
10:54 pm56 °FDrizzle. Mostly cloudy.3 mph100%29.83 "Hg9 mi
10:22 pm56 °FDrizzle. Fog.3 mph100%29.84 "Hg6 mi
Weather by CustomWeather, © 2017

See weather overviewHow to use our weather pages